CST,Max TemperatureF,Mean TemperatureF,Min TemperatureF,Max Dew PointF,MeanDew PointF,Min DewpointF,Max Humidity, Mean Humidity, Min Humidity, Max Sea Level PressureIn, Mean Sea Level PressureIn, Min Sea Level PressureIn, Max VisibilityMiles, Mean VisibilityMiles, Min VisibilityMiles, Max Wind SpeedMPH, Mean Wind SpeedMPH, Max Gust SpeedMPH,PrecipitationIn, CloudCover, Events, WindDirDegrees
2013-11-1,44,38,32,36,34,29,85,74,62,30.00,29.78,29.57,10,10,9,23,14,31,0.01,6,Rain,283
2013-11-2,55,42,29,32,27,22,85,57,28,30.06,29.97,29.79,10,10,10,14,8,18,0.00,1,,187
2013-11-3,48,42,36,33,30,28,76,63,50,29.77,29.62,29.53,10,10,10,18,9,24,0.00,1,,142
2013-11-4,37,30,23,26,19,15,75,66,56,30.08,29.85,29.67,10,10,9,31,19,40,0.00,5,Snow,253
2013-11-5,36,26,16,20,15,11,81,63,44,30.23,30.16,30.02,10,10,10,18,9,24,0.00,2,,239
2013-11-6,39,29,19,24,19,12,88,70,52,30.26,30.10,30.02,10,10,7,15,6,19,0.00,3,,286
2013-11-7,45,33,20,24,20,13,81,61,41,30.27,30.19,30.01,10,10,10,20,9,23,0.00,2,,246
2013-11-8,44,36,27,36,31,22,85,72,58,29.97,29.69,29.54,10,10,8,29,12,38,T,8,Rain-Snow,254
2013-11-9,36,28,19,28,21,15,84,73,61,30.33,30.09,29.79,10,10,9,36,18,46,T,5,Snow,275
2013-11-10,34,22,9,25,14,-3,84,62,39,30.54,30.28,30.15,10,10,10,23,13,28,0.00,5,,325
2013-11-11,21,12,2,10,-1,-7,87,59,31,30.77,30.71,30.57,10,10,10,16,8,21,0.00,0,,264
2013-11-12,47,33,18,29,21,10,77,63,49,30.69,30.40,30.03,10,10,10,18,12,26,0.00,0,,194
2013-11-13,56,47,38,32,31,27,70,54,38,30.00,29.91,29.83,10,10,10,24,14,31,0.00,2,,239
2013-11-14,46,37,27,37,32,24,92,76,60,29.88,29.81,29.74,10,9,0,21,10,26,0.01,6,Fog-Rain,246
2013-11-15,53,39,24,30,26,22,92,65,38,29.75,29.52,29.33,10,10,10,20,11,25,0.00,0,,201
2013-11-16,43,38,32,34,30,24,100,80,59,29.46,29.36,29.29,10,7,1,12,6,15,0.04,7,Snow,330
2013-11-17,32,27,22,30,23,17,92,87,81,30.03,29.67,29.41,10,8,2,20,9,23,0.01,8,Snow,351
2013-11-18,37,25,13,26,20,11,92,81,70,30.14,30.05,29.91,10,10,10,16,6,20,0.00,2,,128
2013-11-19,39,31,23,31,27,16,89,77,64,29.88,29.67,29.52,10,10,10,22,9,28,0.00,1,,169
2013-11-20,23,14,5,14,7,-1,84,76,67,30.48,30.13,29.77,10,5,0,23,16,29,0.08,6,Fog-Snow,313
2013-11-21,14,3,-9,3,-5,-12,83,72,61,30.74,30.62,30.47,10,10,10,23,14,34,T,0,,236
2013-11-22,17,4,-10,12,0,-16,80,70,59,30.97,30.66,30.42,10,8,1,23,12,29,T,5,Snow,306
2013-11-23,20,2,-17,10,-6,-21,87,75,63,30.98,30.77,30.32,10,10,8,17,8,23,0.00,1,,179
2013-11-24,38,28,17,26,20,12,70,63,56,30.26,29.97,29.86,10,10,9,29,18,36,T,1,,235
2013-11-25,32,24,15,23,18,8,75,72,68,30.42,30.19,29.99,10,10,9,29,21,36,T,7,Snow,297
2013-11-26,19,12,4,9,5,1,87,77,67,30.59,30.48,30.33,10,10,10,18,9,23,T,0,,263
2013-11-27,28,20,12,19,15,7,81,72,63,30.28,30.10,29.97,10,10,9,25,14,35,T,5,Snow,283
2013-11-28,24,20,15,15,10,7,80,74,67,30.46,30.37,30.26,10,10,7,18,9,24,T,6,Snow,89
2013-11-29,30,22,14,25,18,10,88,79,69,30.28,30.08,29.95,10,9,5,15,8,18,0.00,5,,180
2013-11-30,33,23,13,25,17,11,92,81,69,30.26,30.17,30.07,10,5,0,12,6,16,0.00,2,Fog,317